Regional Weather Roundup
Issued by NWS

Home | Current Version | Previous Version | Text Only | Print | Product List | Glossary On
Versions: 1 2 3 4 5 6 7 8 9 10 11 12 13 14 15 16 17 18 19 20 21 22 23 24 25 26 27 28 29 30 31 32 33 34 35 36 37 38 39 40 41 42 43 44 45 46 47 48 49 50
000
ASUS44 KFWD 250603
RWRTX
NORTH TEXAS HOURLY WEATHER ROUNDUP
NATIONAL WEATHER SERVICE FORT WORTH TX
100 AM CDT SUN SEP 25 2016

NOTE: "FAIR" INDICATES FEW OR NO CLOUDS BELOW 12,000 FEET WITH NO
SIGNIFICANT WEATHER AND/OR OBSTRUCTIONS TO VISIBILITY.

TXZ118-119-250700-
DALLAS/FORT WORTH METROPLEX

CITY           SKY/WX    TMP DP  RH WIND       PRES   REMARKS
DFW AIRPORT    MOCLDY    78  71  79 S6        29.97F
6HR MIN TEMP:  75; 6HR MAX TEMP:  88; 6HR PCP:  0.34;

DALLAS LOVE    CLOUDY    80  71  74 SE9       29.97F
6HR MIN TEMP:  77; 6HR MAX TEMP:  88; 6HR PCP:  0.22;

FTW MEACHAM    CLOUDY    79  71  76 SE10      29.96F
6HR MIN TEMP:  78; 6HR MAX TEMP:  88;

DAL-EXECUTIVE  CLOUDY    74  73  97 CALM      29.97F
6HR MIN TEMP:  73; 6HR MAX TEMP:  85; 6HR PCP:  0.57;

FTW-ALLIANCE   CLOUDY    76  71  85 S9        29.96F
6HR MIN TEMP:  76; 6HR MAX TEMP:  84; 6HR PCP: TRACE;

FTW-NAS-JRB    CLOUDY    79  70  74 SE6       29.96F
6HR MIN TEMP:  79; 6HR MAX TEMP:  89;

FTW-SPINKS     PTCLDY    76  71  85 S5        29.97F
6HR MIN TEMP:  76; 6HR MAX TEMP:  87;

ARLINGTON      CLOUDY    75  71  87 SE5       29.97F
6HR MIN TEMP:  74; 6HR MAX TEMP:  86; 6HR PCP:  0.06;

GRAND PRAIRIE  CLOUDY    76  70  83 S3        29.99F
6HR MIN TEMP:  75; 6HR MAX TEMP:  86; 6HR PCP:  0.03;

ADDISON        MOCLDY    78  73  85 SE8       29.99F
6HR MIN TEMP:  74; 6HR MAX TEMP:  88; 6HR PCP:  0.01;

MESQUITE       CLOUDY    77  69  75 SE6       29.98F
6HR MIN TEMP:  77; 6HR MAX TEMP:  88;

LANCASTER      MOCLDY    76  70  82 S3        29.99S
6HR MIN TEMP:  76; 6HR MAX TEMP:  89;

$$

TXZ091>094-102>105-117-120-121-131>134-250700-
NORTH CENTRAL TEXAS

CITY           SKY/WX    TMP DP  RH WIND       PRES   REMARKS
SHRMAN/DENISON NOT AVBL
GAINESVILLE      N/A     75  71  87 SE6       30.00F
6HR MIN TEMP:  75; 6HR MAX TEMP:  82;

BOWIE          CLOUDY    71  68  92 NW14G24   30.02R
6HR MIN TEMP:  71; 6HR MAX TEMP:  82;

BRIDGEPORT     CLOUDY    77  71  81 S7        29.98S
6HR MIN TEMP:  77; 6HR MAX TEMP:  84;

DECATUR        CLOUDY    76  68  76 SE7       29.98S
6HR MIN TEMP:  76; 6HR MAX TEMP:  83;

DENTON         CLOUDY    77  70  79 S8        29.97F
6HR MIN TEMP:  74; 6HR MAX TEMP:  85;

MCKINNEY       CLOUDY    80  70  71 SE8       29.98F
6HR MIN TEMP:  80; 6HR MAX TEMP:  86;

GREENVILLE     CLOUDY    77  68  73 S3        29.99F
ROCKWALL       CLOUDY    78  69  72 S6        29.97F
6HR MIN TEMP:  78; 6HR MAX TEMP:  87;

TERRELL        MOCLDY    77  70  79 SE3       29.99F
6HR MIN TEMP:  77; 6HR MAX TEMP:  88;

WAXAHACHIE     MOCLDY    74  73  99 E3        29.99F
6HR MIN TEMP:  73; 6HR MAX TEMP:  86; 6HR PCP:  0.76;

CLEBURNE       CLOUDY    75  75 100 SE6       29.98F
GRANBURY       CLOUDY    79  71  77 S7        29.98S
6HR MIN TEMP:  78; 6HR MAX TEMP:  89;

$$

TXZ083>090-098>101-113>116-127>130-139>142-154-155-250700-
WESTERN NORTH TEXAS

CITY           SKY/WX    TMP DP  RH WIND       PRES   REMARKS
WICHITA FALLS  RAIN      69  68  96 E7        29.99R
6HR MIN TEMP:  69; 6HR MAX TEMP:  83; 6HR PCP:  5.42;

WF-KICKAPOO    RAIN      70  67  90 SE3       30.00R
6HR MIN TEMP:  70; 6HR MAX TEMP:  85; 6HR PCP:  0.18;

VERNON         CLOUDY    71  67  84 SE8       29.99R
6HR MIN TEMP:  71; 6HR MAX TEMP:  75; 6HR PCP:  0.19;

ABILENE        TSTM      67  66  97 S5        30.02F FOG
6HR MIN TEMP:  66; 6HR MAX TEMP:  83; 6HR PCP:  1.31;

ABILENE-DYESS  TSTM      67  65  94 SE5       30.01R
6HR MIN TEMP:  66; 6HR MAX TEMP:  78; 6HR PCP:  1.46;

CISCO          CLOUDY    68  66  94 NW6       30.02S THUNDER
MINERAL WELLS  RAIN      71  69  93 W7        29.98R FOG
6HR MIN TEMP:  71; 6HR MAX TEMP:  86; 6HR PCP:  0.18;

STEPHENVILLE   CLOUDY    75  69  81 W5        30.03R
6HR MIN TEMP:  75; 6HR MAX TEMP:  87;

COMANCHE       CLOUDY    73  65  75 N5        30.02S
6HR MIN TEMP:  73; 6HR MAX TEMP:  87;

BROWNWOOD      CLOUDY    73  63  68 N7        30.01R
COLEMAN        CLOUDY    71  64  78 NE8       30.01S THUNDER
6HR MIN TEMP:  71; 6HR MAX TEMP:  88;

$$

TXZ143>147-156>162-174-175-250700-
CENTRAL TEXAS

CITY           SKY/WX    TMP DP  RH WIND       PRES   REMARKS
WACO           PTCLDY    75  74  96 SE8       29.96S
6HR MIN TEMP:  75; 6HR MAX TEMP:  86; 6HR PCP: TRACE;

WACO-MCGREGOR  CLEAR     75  73  93 E9        29.97R
6HR MIN TEMP:  75; 6HR MAX TEMP:  84;

HILLSBORO      PTCLDY    73  72  94 SE7       29.97F
6HR MIN TEMP:  72; 6HR MAX TEMP:  84; 6HR PCP:  0.38;

CORSICANA      CLEAR     75  70  84 SE6       29.99
6HR MIN TEMP:  75; 6HR MAX TEMP:  87;

MEXIA          PTCLDY    74  72  92 S7        29.97S
6HR MIN TEMP:  74; 6HR MAX TEMP:  84;

HEARNE         CLEAR     75  74  97 E5        29.97S
6HR MIN TEMP:  73; 6HR MAX TEMP:  76; 6HR PCP:  0.01;

CAMERON        MOCLDY    75  74  96 SE3       29.96S
6HR MIN TEMP:  75; 6HR MAX TEMP:  77;

TEMPLE         CLEAR     76  74  93 S9        29.96F
6HR MIN TEMP:  75; 6HR MAX TEMP:  78;

KILLEEN        MOCLDY    73  73 100 SE9       29.97R
KILLEEN-SKYLRK CLEAR     75  73  93 SE7       29.98R
6HR MIN TEMP:  75; 6HR MAX TEMP:  79; 6HR PCP: TRACE;

FORT HOOD      CLEAR     73  72  95 SE7       29.95S
6HR MIN TEMP:  73; 6HR MAX TEMP:  77;

HAMILTON       CLOUDY    74  74 100 S7        30.00S
6HR MIN TEMP:  74; 6HR MAX TEMP:  87;

LAMPASAS       CLOUDY    76  74  96 E5        29.97R
6HR MIN TEMP:  76; 6HR MAX TEMP:  81;

$$

TXZ095>097-106>112-122>126-135>138-148>153-164>167-250700-
EAST TEXAS

CITY           SKY/WX    TMP DP  RH WIND       PRES   REMARKS
PARIS          PTCLDY    73  64  73 SE10      30.00S
6HR MIN TEMP:  73; 6HR MAX TEMP:  86;

SULPHUR SPRNGS CLOUDY    78  68  72 S6        30.02F
6HR MIN TEMP:  78; 6HR MAX TEMP:  87;

MOUNT PLEASANT PTCLDY    72  67  84 E3        30.02S
6HR MIN TEMP:  72; 6HR MAX TEMP:  83;

GILMER         CLEAR     74  69  82 CALM      30.02R
6HR MIN TEMP:  74; 6HR MAX TEMP:  85;

MINEOLA        CLOUDY    77  70  78 CALM      30.00S
TYLER          CLOUDY    76  72  87 SE3       30.01R
6HR MIN TEMP:  76; 6HR MAX TEMP:  87;

LONGVIEW       CLEAR     73  70  90 S3        30.00R
6HR MIN TEMP:  73; 6HR MAX TEMP:  85;

MARSHALL       CLEAR     72  68  86 CALM      30.03R
6HR MIN TEMP:  71; 6HR MAX TEMP:  85;

ATHENS         PTCLDY    72  72 100 CALM      29.98S
PALESTINE      PTCLDY    74  73  95 SE3       30.00S
JACKSONVILLE   PTCLDY    75  74  95 S3        30.03S
HENDERSON      CLEAR     71  70  96 CALM      30.02S
6HR MIN TEMP:  71; 6HR MAX TEMP:  85;

CENTER         CLEAR     73  71  95 CALM      30.02R
6HR MIN TEMP:  72; 6HR MAX TEMP:  86;

NACOGDOCHES    PTCLDY    72  70  94 CALM      29.99S
6HR MIN TEMP:  72; 6HR MAX TEMP:  84;

LUFKIN         MOCLDY    73  71  93 E3        30.00R
6HR MIN TEMP:  73; 6HR MAX TEMP:  82;

$$

SUPPLEMENTAL OBSERVATIONS (CENTRAL)

CITY           SKY/WX    TMP DP  RH WIND       PRES   REMARKS
$$

SUPPLEMENTAL OBSERVATIONS (WEST)

CITY           SKY/WX    TMP DP  RH WIND       PRES   REMARKS
$$

SUPPLEMENTAL OBSERVATIONS (EAST)

CITY           SKY/WX    TMP DP  RH WIND       PRES   REMARKS
$$

SUPPLEMENTAL OBSERVATIONS ARE A COLLECTION OF AUTOMATED INSTRUMENTS
THAT ARE MAINTAINED BY A VARIETY OF FEDERAL AND STATE AGENCIES.
CERTAIN ELEMENTS...SUCH AS HUMIDITY VALUES AND SUSTAINED WIND
SPEEDS...MAY BE APPROXIMATED.





USA.gov is the U.S. government's official web portal to all federal, state and local government web resources and services.